Weather observations for the past three days for
Jackson, Carroll Airport
Metric (Imperial)
Date Time (edt) Wind (kph) Vis. (km) Weather Sky Cond. Temperature (ºC) Relative Humidity Wind Chill (°C) Heat Index (°C) Pressure Precipitation (cm)
Air Dwpt 6 hour altimeter (cm) sea level (mb) 1 hr 3 hr 6 hr
Max. Min.
09 05:53 S 6 16.09 Fair CLR 11.7 3.9 59% 75.82 1009.9
09 04:53 Vrbl 6 16.09 A Few Clouds FEW110 12.2 3.3 55% 75.82 1009.9
09 03:53 Calm 16.09 Fair CLR 12.2 3.3 55% 75.82 1010.0
09 02:53 SW 6 16.09 Fair CLR 12.2 3.3 55% 75.82 1010.1
09 01:53 Calm 16.09 Fair CLR 12.8 2.8 17.8 12.2 51% 75.84 1010.4
09 00:53 Vrbl 6 16.09 Fair CLR 13.3 2.2 47% 75.87 1010.6
08 23:53 Vrbl 6 16.09 Fair CLR 14.4 2.2 44% 75.87 1010.7
08 22:53 S 6 16.09 NULL NULL 15 2.2 42% 75.9 1011.0
08 21:53 S 6 16.09 Fair CLR 16.1 2.2 39% 75.92 1011.6
08 20:53 Calm 16.09 Fair CLR 17.2 1.1 34% 75.9 1011.4
08 19:53 Calm 16.09 Fair CLR 17.8 1.7 20.6 17.8 34% 75.92 1011.7
08 18:53 Vrbl 9 16.09 Fair CLR 19.4 2.2 32% 75.92 1011.8
08 17:53 Vrbl 9 16.09 Fair CLR 20 0.6 27% 75.95 1011.9
08 16:53 Vrbl 9 16.09 Fair CLR 20.6 2.8 31% 75.95 1011.9
08 15:53 S 15 16.09 Fair CLR 19.4 1.7 31% 76.02 1012.8
08 14:53 S 13 16.09 Fair CLR 18.9 1.1 30% 76.1 1014.0
08 13:53 S 11 16.09 Fair CLR 18.3 2.8 18.9 6.1 36% 76.17 1015.1
08 12:53 Calm 16.09 Fair CLR 17.2 2.2 37% 76.25 1016.0
08 11:53 S 9 0.00 NULL NULL 15.6 3.9 46% 76.33 1017.0
08 10:53 Vrbl 9 16.09 Fair CLR 13.9 3.3 49% 76.35 1017.3
08 09:53 S 6 16.09 Fair CLR 10.6 3.9 64% 76.33 1017.2
08 08:53 S 6 16.09 Fair CLR 7.8 2.8 71% 76.3 1017.2
08 07:53 Calm 16.09 Fair CLR 6.1 2.8 8.3 4.4 80% 76.3 1017.1
08 06:53 Calm 16.09 Fair CLR 5 2.8 86% 76.25 1016.4
08 05:53 S 6 16.09 Fair CLR 5 2.8 86% 76.23 1016.1
08 04:53 Calm 16.09 Fair CLR 6.7 1.7 71% 76.23 1015.9
08 03:53 Calm 16.09 Fair CLR 6.7 2.2 73% 76.2 1015.7
08 02:53 Calm 16.09 Fair CLR 7.2 2.8 74% 76.23 1015.9
08 01:53 Calm 16.09 Fair CLR 8.3 1.1 13.9 7.2 61% 76.23 1016.0
08 00:53 Calm 16.09 Fair CLR 8.9 0 54% 76.23 1016.0
07 23:53 NW 6 16.09 Fair CLR 10.6 -1.1 45% 76.2 1015.7
07 22:53 NW 6 16.09 Fair CLR 11.7 -1.1 41% 76.2 1015.7
07 21:53 NW 6 16.09 Fair CLR 11.7 0 45% 76.17 1015.1
07 20:53 Calm 16.09 Fair CLR 12.2 0.6 45% 76.1 1014.4
07 19:53 NW 9 16.09 Fair CLR 13.9 0 17.2 13.9 39% 76.07 1014.0
07 18:53 NW 9 16.09 Fair CLR 15 0 36% 76.05 1013.6
07 17:53 Vrbl 7 16.09 A Few Clouds FEW060 15.6 1.1 38% 76.05 1013.3
07 16:53 Calm 16.09 A Few Clouds FEW060 16.1 1.7 38% 76 1012.6
07 15:53 Vrbl 7 16.09 Fair CLR 17.2 3.3 40% 76 1012.7
07 14:53 Vrbl 11 16.09 Partly Cloudy SCT049 16.7 4.4 44% 76.02 1013.0
07 13:53 Calm 16.09 Partly Cloudy SCT047 15.6 5 15.6 8.9 50% 76.07 1013.5
07 12:53 Vrbl 9 16.09 Overcast OVC049 13.9 5.6 58% 76.1 1014.1
07 11:53 Vrbl 6 16.09 Overcast FEW034 OVC044 13.9 5.6 58% 76.12 1014.3
07 10:53 Calm 16.09 Overcast BKN031 OVC039 11.7 6.1 69% 76.1 1014.3
07 09:53 Calm 16.09 Mostly Cloudy BKN048 11.7 5.6 66% 76.12 1014.4
07 08:53 Calm 16.09 Overcast OVC045 10 6.7 80% 76.12 1014.7
07 07:53 Calm 16.09 Overcast OVC046 8.9 6.7 11.1 8.3 86% 76.1 1014.4
07 06:53 Calm 16.09 Overcast OVC045 8.9 6.7 86% 76.07 1013.9
07 05:53 Calm 16.09 Overcast OVC040 8.9 7.2 89% 76.07 1013.9
07 04:53 Calm 16.09 Overcast OVC036 8.9 8.3 96% 76.05 1013.7
07 03:53 Calm 16.09 Overcast OVC033 9.4 8.3 93% 76.02 1013.4
07 02:53 Calm 16.09 Overcast OVC032 9.4 8.9 97% 76.07 1013.9
07 01:53 Calm 4.83 Fog/Mist BKN003 BKN014 OVC026 11.1 10.6 11.7 11.1 97% 76.07 1013.7
07 00:53 NW 7 8.05 Fog/Mist BKN002 OVC033 11.1 11.1 100% 76.07 1013.8
06 23:53 W 6 8.05 Fog/Mist BKN002 OVC029 11.1 11.1 100% 76.1 1014.1
06 22:53 Calm 4.02 Fog/Mist SCT002 OVC030 11.1 11.1 100% 76.07 1013.8
06 21:53 Calm 1.61 Light Rain Fog/Mist VV002 11.7 11.1 96% 76.05 1013.4
06 20:52 Calm 2.01 Fog/Mist OVC002 11.1 11.1 100% 76.07 1013.7
06 19:53 Calm 0.40 Fog BKN002 BKN007 OVC018 11.7 11.1 12.2 11.1 96% 76.02 1012.8 0.03 0.18
06 18:53 Calm 2.01 Fog/Mist OVC003 11.7 11.1 96% 76 1012.5
06 17:53 Calm 6.44 Fog/Mist SCT006 BKN012 OVC024 11.7 11.1 96% 76 1012.7 0.03
06 16:53 NW 6 6.44 Light Rain Fog/Mist FEW003 BKN016 OVC024 11.7 10.6 93% 75.95 1011.9 0.03 0.13
06 15:53 Vrbl 9 4.83 Light Rain Fog/Mist BKN003 OVC008 11.7 10.6 93% 75.97 1012.4 0.03
06 14:53 Vrbl 6 3.22 Light Rain Fog/Mist BKN003 OVC007 11.7 11.1 96% 75.95 1012.1 0.08
06 13:53 Vrbl 6 2.01 Light Rain Fog/Mist OVC003 11.7 11.1 16.1 11.1 96% 75.92 1011.8 0.03 0.38
06 12:53 NW 11 3.22 Light Rain Fog/Mist BKN003 OVC007 11.7 11.1 96% 75.95 1011.8 0.15
06 11:53 NW 9 1.21 Rain Fog/Mist VV002 11.7 11.1 96% 75.9 1011.2 0.03
06 10:53 Vrbl 6 11.27 Overcast OVC002 16.1 15.6 97% 75.82 1009.7 0.03 0.18
06 09:53 Calm 3.22 Light Rain Fog/Mist OVC002 16.1 15.6 97% 75.77 1009.3 0.15
06 08:53 Calm 1.61 Fog/Mist BKN005 OVC008 16.1 15.6 97% 75.74 1009.0
06 07:53 Vrbl 6 16.09 Overcast BKN050 OVC060 15 14.4 15.6 13.9 96% 75.72 1008.3 0.03 0.53
06 06:53 Calm 6.44 Light Rain Fog/Mist BKN016 OVC020 14.4 13.9 97% 75.67 1007.9 0.15
Date Time (edt) Wind (kph) Vis. (km) Weather Sky Cond. Air Dwpt Max. Min. Relative Humidity Wind Chill (°C) Heat Index (°C) altimeter (cm) sea level (mb) 1 hr 3 hr 6 hr
6 hour
Temperature (ºC) Pressure Precipitation (cm)